• In Belarus
  • List of Countries
  • For 7 days
  • Water Temperature
  • Satellite Maps
  • Weather Map
  • Weather Widgets
  • user-avatar
    Login

    Hourly Weather Dresden

    Today, 16 January, Wednesday

    Time Temperature Precipitation Wind Pressure Humidity
    00:00 +2°C° 0.4 mm 9 mps 746 mmHg 84%
    01:00 +2°C° 0 mm 8 mps 746 mmHg 84%
    02:00 +2°C° 0.1 mm 8 mps 746 mmHg 84%
    03:00 +2°C° 0.1 mm 8 mps 746 mmHg 83%
    04:00 +2°C° 0.1 mm 8 mps 745 mmHg 83%
    05:00 +2°C° 0 mm 8 mps 746 mmHg 83%
    06:00 +2°C° 0 mm 7 mps 746 mmHg 84%
    07:00 +2°C° 0 mm 5 mps 746 mmHg 86%
    08:00 +2°C° 0 mm 5 mps 746 mmHg 84%
    09:00 +3°C° 0 mm 6 mps 746 mmHg 83%
    10:00 +3°C° 0 mm 6 mps 746 mmHg 81%
    11:00 +3°C° 0 mm 6 mps 746 mmHg 79%
    12:00 +4°C° 0 mm 6 mps 746 mmHg 77%
    13:00 +5°C° 0 mm 5 mps 746 mmHg 78%
    14:00 +5°C° 0 mm 5 mps 745 mmHg 78%
    15:00 +4°C° 0 mm 4 mps 745 mmHg 79%
    16:00 +4°C° 0 mm 4 mps 745 mmHg 79%
    17:00 +3°C° 0 mm 4 mps 744 mmHg 81%
    18:00 +3°C° 0 mm 4 mps 744 mmHg 82%
    19:00 +2°C° 0 mm 3 mps 743 mmHg 83%
    20:00 +1°C° 0 mm 4 mps 743 mmHg 82%
    21:00 +1°C° 0 mm 4 mps 743 mmHg 80%
    22:00 +1°C° 0 mm 4 mps 742 mmHg 79%
    23:00 +1°C° 0 mm 5 mps 742 mmHg 76%

    Tomorrow, 17 January, Thursday

    Time Temperature Precipitation Wind Pressure Humidity
    00:00 +1°C° 0 mm 5 mps 741 mmHg 73%
    01:00 +2°C° 0 mm 5 mps 740 mmHg 70%
    02:00 +2°C° 0 mm 6 mps 740 mmHg 70%
    03:00 +2°C° 0 mm 6 mps 740 mmHg 70%
    04:00 +2°C° 0 mm 6 mps 739 mmHg 71%
    05:00 +2°C° 0 mm 6 mps 739 mmHg 73%
    06:00 +2°C° 0 mm 6 mps 739 mmHg 76%
    07:00 +2°C° 0 mm 7 mps 739 mmHg 79%
    08:00 +3°C° 0 mm 6 mps 739 mmHg 79%
    09:00 +3°C° 0 mm 6 mps 739 mmHg 79%
    10:00 +4°C° 0 mm 6 mps 740 mmHg 78%
    11:00 +4°C° 0.1 mm 6 mps 740 mmHg 78%
    12:00 +4°C° 0.1 mm 6 mps 740 mmHg 77%
    13:00 +6°C° 0.1 mm 5 mps 740 mmHg 76%
    14:00 +5°C° 0.1 mm 5 mps 739 mmHg 76%
    15:00 +5°C° 0.1 mm 4 mps 739 mmHg 77%
    16:00 +5°C° 0.1 mm 4 mps 739 mmHg 78%
    17:00 +3°C° 0 mm 5 mps 739 mmHg 76%
    18:00 +3°C° 0 mm 6 mps 739 mmHg 75%
    19:00 +3°C° 0 mm 7 mps 739 mmHg 74%
    20:00 +2°C° 0.5 mm 7 mps 740 mmHg 76%
    21:00 +2°C° 0.5 mm 7 mps 740 mmHg 77%
    22:00 0°C° 0.5 mm 7 mps 741 mmHg 78%
    23:00 -1°C° 0 mm 7 mps 742 mmHg 78%

    Day after tomorrow, 18 January, Friday

    Time Temperature Precipitation Wind Pressure Humidity
    00:00 -2°C° 0 mm 7 mps 743 mmHg 77%
    01:00 -2°C° 0 mm 7 mps 743 mmHg 76%
    02:00 -3°C° 0.1 mm 7 mps 744 mmHg 78%
    03:00 -3°C° 0.1 mm 6 mps 744 mmHg 81%
    04:00 -3°C° 0.1 mm 6 mps 745 mmHg 83%
    05:00 -3°C° 0.2 mm 6 mps 746 mmHg 83%
    06:00 -3°C° 0.2 mm 6 mps 746 mmHg 83%
    07:00 -3°C° 0.2 mm 6 mps 747 mmHg 83%
    08:00 -3°C° 0.1 mm 6 mps 748 mmHg 82%
    09:00 -4°C° 0.1 mm 6 mps 749 mmHg 80%
    10:00 -4°C° 0.1 mm 6 mps 750 mmHg 79%
    11:00 -2°C° 0 mm 5 mps 751 mmHg 76%
    12:00 -2°C° 0 mm 5 mps 751 mmHg 73%
    13:00 -2°C° 0 mm 4 mps 752 mmHg 70%
    14:00 -1°C° 0 mm 3 mps 752 mmHg 72%
    15:00 -1°C° 0 mm 3 mps 752 mmHg 73%
    16:00 -2°C° 0 mm 2 mps 752 mmHg 75%
    17:00 -2°C° 0 mm 2 mps 752 mmHg 76%
    18:00 -2°C° 0 mm 2 mps 753 mmHg 77%
    19:00 -3°C° 0 mm 2 mps 753 mmHg 77%
    20:00 -3°C° 0 mm 2 mps 753 mmHg 76%
    21:00 -3°C° 0 mm 2 mps 753 mmHg 74%
    22:00 -3°C° 0 mm 2 mps 754 mmHg 73%
    23:00 -3°C° 0 mm 2 mps 754 mmHg 72%

    19 January, Saturday

    Time Temperature Precipitation Wind Pressure Humidity
    00:00 -3°C° 0 mm 2 mps 753 mmHg 70%
    01:00 -3°C° 0 mm 2 mps 753 mmHg 69%
    02:00 -3°C° 0 mm 2 mps 753 mmHg 68%
    03:00 -1°C° 0 mm 1 mps 753 mmHg 68%
    04:00 -1°C° 0 mm 1 mps 753 mmHg 67%
    05:00 -1°C° 0 mm 1 mps 753 mmHg 67%
    06:00 -3°C° 0 mm 2 mps 753 mmHg 68%
    07:00 -3°C° 0 mm 2 mps 753 mmHg 68%
    08:00 -2°C° 0 mm 2 mps 753 mmHg 67%
    09:00 -2°C° 0 mm 2 mps 753 mmHg 65%
    10:00 -2°C° 0 mm 2 mps 753 mmHg 64%
    11:00 -1°C° 0 mm 2 mps 752 mmHg 60%
    12:00 +1°C° 0 mm 2 mps 752 mmHg 57%
    13:00 +1°C° 0 mm 3 mps 751 mmHg 54%
    14:00 +1°C° 0 mm 2 mps 751 mmHg 57%
    15:00 -1°C° 0 mm 2 mps 751 mmHg 61%
    16:00 -1°C° 0 mm 2 mps 750 mmHg 64%
    17:00 -2°C° 0 mm 2 mps 750 mmHg 67%
    18:00 -2°C° 0 mm 2 mps 750 mmHg 69%
    19:00 -3°C° 0 mm 2 mps 750 mmHg 72%
    20:00 -3°C° 0 mm 2 mps 750 mmHg 73%
    21:00 -3°C° 0 mm 2 mps 750 mmHg 74%
    22:00 -3°C° 0 mm 2 mps 750 mmHg 75%
    23:00 -3°C° 0 mm 2 mps 750 mmHg 77%

    20 January, Sunday

    Time Temperature Precipitation Wind Pressure Humidity
    00:00 -3°C° 0 mm 2 mps 750 mmHg 79%
    01:00 -3°C° 0 mm 2 mps 750 mmHg 81%
    02:00 -3°C° 0 mm 2 mps 750 mmHg 83%
    03:00 -4°C° 0 mm 2 mps 750 mmHg 84%
    04:00 -2°C° 0 mm 1 mps 750 mmHg 85%
    05:00 -2°C° 0 mm 1 mps 750 mmHg 86%
    06:00 -2°C° 0 mm 1 mps 750 mmHg 87%
    07:00 -2°C° 0 mm 1 mps 750 mmHg 88%
    08:00 -1°C° 0 mm 1 mps 750 mmHg 85%
    09:00 -1°C° 0 mm 1 mps 750 mmHg 83%
    10:00 0°C° 0 mm 1 mps 751 mmHg 80%
    11:00 +1°C° 0 mm 1 mps 751 mmHg 76%
    12:00 +1°C° 0 mm 1 mps 751 mmHg 72%
    13:00 +2°C° 0 mm 1 mps 751 mmHg 68%
    14:00 +2°C° 0 mm 1 mps 751 mmHg 70%
    15:00 +1°C° 0 mm 1 mps 751 mmHg 73%
    16:00 +1°C° 0 mm 1 mps 751 mmHg 75%
    17:00 0°C° 0 mm 1 mps 752 mmHg 76%
    18:00 -1°C° 0 mm 1 mps 752 mmHg 77%
    19:00 -1°C° 0 mm 1 mps 753 mmHg 79%
    20:00 -1°C° 0 mm 1 mps 753 mmHg 78%
    21:00 -3°C° 0 mm 0 mps 753 mmHg 78%
    22:00 -3°C° 0 mm 0 mps 754 mmHg 77%
    23:00 -3°C° 0 mm 0 mps 754 mmHg 77%

    21 January, Monday

    Time Temperature Precipitation Wind Pressure Humidity
    00:00 -3°C° 0 mm 0 mps 754 mmHg 77%
    01:00 -3°C° 0 mm 0 mps 755 mmHg 76%
    02:00 -3°C° 0 mm 0 mps 755 mmHg 76%
    03:00 -3°C° 0 mm 0 mps 755 mmHg 75%
    04:00 -4°C° 0 mm 0 mps 755 mmHg 74%
    05:00 -4°C° 0 mm 0 mps 755 mmHg 74%
    06:00 -4°C° 0 mm 0 mps 756 mmHg 74%
    07:00 -4°C° 0 mm 0 mps 756 mmHg 74%
    08:00 -3°C° 0 mm 0 mps 756 mmHg 74%
    09:00 -3°C° 0 mm 0 mps 757 mmHg 74%
    10:00 -1°C° 0 mm 1 mps 757 mmHg 74%
    11:00 0°C° 0 mm 1 mps 757 mmHg 74%
    12:00 0°C° 0 mm 1 mps 757 mmHg 74%
    13:00 -1°C° 0 mm 2 mps 757 mmHg 74%
    14:00 -1°C° 0 mm 2 mps 757 mmHg 76%
    15:00 -2°C° 0 mm 2 mps 757 mmHg 77%
    16:00 -2°C° 0 mm 2 mps 757 mmHg 79%
    17:00 -2°C° 0 mm 2 mps 757 mmHg 81%
    18:00 -3°C° 0 mm 2 mps 757 mmHg 83%
    19:00 -4°C° 0 mm 2 mps 757 mmHg 85%
    20:00 -4°C° 0 mm 2 mps 756 mmHg 85%
    21:00 -4°C° 0 mm 2 mps 756 mmHg 84%
    22:00 -4°C° 0 mm 2 mps 756 mmHg 84%
    23:00 -4°C° 0 mm 2 mps 755 mmHg 84%
    Show more